YU7IBS-1 Weather Reports


time (UTC)temp
C
wind
direction
speed
KPH
gust
KPH
rain 1hr
cm
rain 24hr
cm
rain mn
cm
humidity
%
barometer
mb
20260507052744 15 0 0.0 0.0 0.00 0.00 0.00 96 997.9
20260507051244 15 0 0.0 0.0 0.00 0.00 0.00 97 997.5
20260507045744 15 0 0.0 0.0 0.00 0.00 0.00 97 997.7
20260507044245 16 0 0.0 0.0 0.00 0.00 0.00 95 997.3
20260507041249 16 0 0.0 0.0 0.00 0.00 0.00 91 997.3
20260507035743 17 0 0.0 0.0 0.00 0.00 0.00 89 997.3
20260507034244 17 0 0.0 0.0 0.00 0.00 0.00 77 996.4
20260507032744 17 0 0.0 0.0 0.00 0.00 0.00 79 996.7
20260507031244 17 0 0.0 0.0 0.00 0.00 0.00 77 996.3
20260507025744 17 0 0.0 0.0 0.00 0.00 0.00 81 996.7
20260507024244 17 0 0.0 0.0 0.00 0.00 0.00 79 996.3
20260507022744 17 0 0.0 0.0 0.00 0.00 0.00 83 996.7
20260507021244 17 0 0.0 0.0 0.00 0.00 0.00 81 996.3
20260507015744 17 0 0.0 0.0 0.00 0.00 0.00 86 996.6
20260507012744 17 0 0.0 0.0 0.00 0.00 0.00 90 995.8
20260507011244 17 0 0.0 0.0 0.00 0.00 0.00 88 995.3
20260507005744 17 0 0.0 0.0 0.00 0.00 0.00 92 995.7
20260507004244 17 0 0.0 0.0 0.00 0.00 0.00 89 995.3
20260507002744 17 0 0.0 0.0 0.00 0.00 0.00 92 995.7
20260507001244 17 0 0.0 0.0 0.00 0.00 0.00 88 995.3
20260506234243 17 0 0.0 0.0 0.00 0.00 0.00 88 995.3
20260506232745 17 0 0.0 0.0 0.00 0.00 0.00 92 995.7
20260506231244 17 0 0.0 0.0 0.00 0.00 0.00 88 995.3
20260506224243 17 0 0.0 0.0 0.00 0.00 0.00 86 995.3
20260506222743 17 0 0.0 0.0 0.00 0.00 0.00 89 995.7
20260506221243 17 0 0.0 0.0 0.00 0.00 0.00 83 995.3
20260506215744 18 0 0.0 0.0 0.00 0.00 0.00 84 995.7
20260506214244 18 0 0.0 0.0 0.00 0.00 0.00 76 995.1
20260506212743 19 0 0.0 0.0 0.00 0.00 0.00 72 994.8
20260506211244 20 0 0.0 0.0 0.00 0.00 0.00 62 994.3
20260506205744 20 0 0.0 0.0 0.00 0.00 0.00 58 994.7
20260506204243 20 0 0.0 0.0 0.00 0.00 0.00 50 993.5
20260506202743 20 0 0.0 0.0 0.00 0.00 0.00 52 993.7
20260506201243 20 0 0.0 0.0 0.00 0.00 0.00 53 993.5
20260506195743 20 0 0.0 0.0 0.00 0.00 0.00 52 993.5
20260506194244 20 0 0.0 0.0 0.00 0.00 0.00 52 993.5
20260506192743 20 0 0.0 0.0 0.00 0.00 0.00 49 993.5
20260506191243 20 0 0.0 0.0 0.00 0.00 0.00 50 993.5
20260506185743 20 0 0.0 0.0 0.00 0.00 0.00 47 993.5
20260506184244 21 0 0.0 0.0 0.00 0.00 0.00 49 993.5
20260506182743 21 0 0.0 0.0 0.00 0.00 0.00 47 993.5
20260506175743 21 0 0.0 0.0 0.00 0.00 0.00 46 993.5
20260506174244 22 0 0.0 0.0 0.00 0.00 0.00 48 993.4
20260506172744 22 0 0.0 0.0 0.00 0.00 0.00 45 993.3
20260506171243 23 0 0.0 0.0 0.00 0.00 0.00 46 993.4
20260506165743 23 0 0.0 0.0 0.00 0.00 0.00 42 993.5
20260506164243 24 0 0.0 0.0 0.00 0.00 0.00 43 993.5
20260506162742 25 0 0.0 0.0 0.00 0.00 0.00 40 993.5
20260506161243 25 0 0.0 0.0 0.00 0.00 0.00 42 993.5
20260506155743 25 0 0.0 0.0 0.00 0.00 0.00 38 993.5
20260506154243 25 0 0.0 0.0 0.00 0.00 0.00 41 993.5
20260506151244 26 0 0.0 0.0 0.00 0.00 0.00 40 993.5
20260506145743 26 0 0.0 0.0 0.00 0.00 0.00 37 993.7
20260506144243 26 0 0.0 0.0 0.00 0.00 0.00 41 993.9
20260506142743 26 0 0.0 0.0 0.00 0.00 0.00 38 994.0
20260506141242 26 0 0.0 0.0 0.00 0.00 0.00 39 994.3
20260506135743 25 0 0.0 0.0 0.00 0.00 0.00 38 994.5
20260506134243 26 0 0.0 0.0 0.00 0.00 0.00 40 994.5
20260506132742 26 0 0.0 0.0 0.00 0.00 0.00 37 994.5
20260506131243 26 0 0.0 0.0 0.00 0.00 0.00 39 994.5
20260506125744 25 0 0.0 0.0 0.00 0.00 0.00 38 994.9
20260506124243 26 0 0.0 0.0 0.00 0.00 0.00 40 995.3
20260506122744 26 0 0.0 0.0 0.00 0.00 0.00 37 995.5
20260506121242 25 0 0.0 0.0 0.00 0.00 0.00 40 995.5
20260506115743 25 0 0.0 0.0 0.00 0.00 0.00 38 995.5
20260506114243 25 0 0.0 0.0 0.00 0.00 0.00 40 995.5
20260506112743 25 0 0.0 0.0 0.00 0.00 0.00 37 995.9
20260506111243 25 0 0.0 0.0 0.00 0.00 0.00 37 996.0
20260506105743 25 0 0.0 0.0 0.00 0.00 0.00 36 996.0
20260506104244 25 0 0.0 0.0 0.00 0.00 0.00 37 996.4
20260506102743 25 0 0.0 0.0 0.00 0.00 0.00 36 996.7
20260506101243 25 0 0.0 0.0 0.00 0.00 0.00 36 996.3
20260506094242 25 0 0.0 0.0 0.00 0.00 0.00 36 996.3
20260506092743 25 0 0.0 0.0 0.00 0.00 0.00 37 996.7
20260506091243 24 0 0.0 0.0 0.00 0.00 0.00 37 996.5
20260506085743 24 0 0.0 0.0 0.00 0.00 0.00 38 996.8
20260506084243 23 0 0.0 0.0 0.00 0.00 0.00 38 997.0
20260506082743 23 0 0.0 0.0 0.00 0.00 0.00 37 997.0
20260506081243 22 0 1.6 1.6 0.00 0.00 0.00 37 997.0
20260506072743 20 0 3.2 6.4 0.00 0.00 0.00 39 997.6
20260506061243 18 0 3.2 4.8 0.00 0.00 0.00 48 997.3